Hovedside
METAR-TAF:

METAR-TAF

Lufthavner :

Røst, Norge

Røst lufthavn

breddegrad: 67-31N, lengdegrad: 012-06E, høyde over havet: 4 m

Gjeldene værobservasjon

Denne rapporten ble laget for 9 timer og 21 minutter siden, klokken 13:20 UTC
Vind 10 kt fra Nord-nordøst
Temperatur 15°C
Luftfuktighet 82%
Trykk 1020 hPa
Sikt 10 km eller mer
ingen skyer under 1500 m og ingen bygeskyer

METAR: ENRS 241320Z 02010KT CAVOK 15/12 Q1020

Tid: 00:41 (22:41 UTC)


TAF: fraværende

Værobservasjoner og værvarsel for over 4000 flyplasser (METAR- og TAF-rapporter).

Tilgjengelige stasjoner er representert av de røde og gule prikkene på kartet.

Hold musepekeren over prikken for å se navnet på stasjonen.

Klikk så for å se værobservasjoner og -varsler.

For å forandre kartet kan du klikke på den grønne knappen med svart kryss for å zoome inn, på den grønne knappen med strek for å zoome ut, eller på de grønne pilene for å se tilstøtende kart.


METAR-TAF: